星链-1803 (STARLINK-1803 )

导读 | 豆包AI

STARLINK-1803是美国太空探索技术公司SpaceX星链星座中的卫星,于2020年10月18日发射升空,属于星链低轨互联网星座组网卫星。该卫星部署在近地轨道,服务于星链全球卫星互联网项目,为偏远地区、移动场景等提供宽带互联网接入服务,是星链大规模组网部署中的一员。

基本信息
目录编号:
46703
目录名称:
STARLINK-1803
国际标识:
2020-073AK
轨道中心:
EARTH
卫星名称:
星链-1803
卫星全名:
星链-1803 (STARLINK-1803 )
卫星状态:
已陨落 最后检测时间 2025-04-24
发射日期:
2020-10-18 UTC
国别 :
美国 (US)
星等 :
--
轨道信息
数据来源 国际轨道数据
星历时间: 2025-04-24T20:15:05+0800
轨道信息已过期344天
半长轴: 6549.013km
偏心率: 0.0006667
轨道倾角: 53.019°
近地点辐角 313.397°
升交点赤经 176.012°
平近点角 185.997°
近地点: 166.511km
远地点: 175.245km
周期: 87.907分钟
每日圈数: 16.380948
详细信息
固有亮度:
5
最大亮度:
2.5
卫星平台:
Starlink V1.0
覆盖范围:
全球
运营商:
太空探索技术公司
运营商所在国:
美国
制造商(研发单位):
太空探索技术公司
制造商所在国:
美国
使用方式:
暂无
卫星简介
星链(Starlink)计划是由太空探索技术公司(SpaceX)提出的一个巨型低轨卫星互联网星座项目,计划在2019年至2024年间在太空搭建由约1.2万颗卫星组成的“星链”网络,其中1584颗将部署在地球上空550千米处的近地轨道,并从2020年开始工作。该卫星仍在工作。